EN

Hourly Weather Khliborobne

Today, 23 January, Saturday

Time Temperature Precipitation Wind Pressure Humidity
00:00 -2°C° 0 mm 4 mps 729 mmHg 88%
01:00 -2°C° 0 mm 4 mps 729 mmHg 88%
02:00 -3°C° 0 mm 4 mps 729 mmHg 89%
03:00 -3°C° 0 mm 4 mps 729 mmHg 89%
04:00 -2°C° 0 mm 3 mps 729 mmHg 88%
05:00 -2°C° 0 mm 3 mps 729 mmHg 88%
06:00 -2°C° 0 mm 3 mps 729 mmHg 88%
07:00 -2°C° 0 mm 3 mps 729 mmHg 87%
08:00 -2°C° 0 mm 3 mps 729 mmHg 87%
09:00 -2°C° 0 mm 4 mps 729 mmHg 87%
10:00 -1°C° 0 mm 4 mps 729 mmHg 88%
11:00 0°C° 0 mm 4 mps 729 mmHg 89%
12:00 0°C° 0 mm 4 mps 729 mmHg 90%
13:00 0°C° 0 mm 4 mps 728 mmHg 91%
14:00 +1°C° 0 mm 4 mps 728 mmHg 92%
15:00 0°C° 0 mm 4 mps 728 mmHg 91%
16:00 0°C° 0 mm 4 mps 728 mmHg 90%
17:00 -1°C° 0 mm 4 mps 727 mmHg 90%
18:00 -1°C° 0 mm 4 mps 727 mmHg 90%
19:00 -1°C° 0 mm 4 mps 727 mmHg 90%
20:00 -1°C° 0 mm 4 mps 727 mmHg 90%
21:00 -1°C° 0 mm 5 mps 726 mmHg 90%
22:00 -1°C° 0 mm 5 mps 726 mmHg 91%
23:00 -2°C° 0 mm 6 mps 726 mmHg 91%

Tomorrow, 24 January, Sunday

Time Temperature Precipitation Wind Pressure Humidity
00:00 -1°C° 0 mm 6 mps 726 mmHg 93%
01:00 -1°C° 0 mm 6 mps 725 mmHg 95%
02:00 0°C° 0 mm 7 mps 725 mmHg 97%
03:00 0°C° 0 mm 7 mps 725 mmHg 96%
04:00 +2°C° 0 mm 7 mps 724 mmHg 96%
05:00 +2°C° 0 mm 7 mps 723 mmHg 96%
06:00 +2°C° 0 mm 6 mps 723 mmHg 96%
07:00 +2°C° 0 mm 6 mps 723 mmHg 95%
08:00 +2°C° 0 mm 6 mps 723 mmHg 95%
09:00 +2°C° 0.4 mm 6 mps 722 mmHg 95%
10:00 +2°C° 0.4 mm 6 mps 722 mmHg 95%
11:00 +2°C° 0.4 mm 7 mps 721 mmHg 96%
12:00 +2°C° 0.4 mm 7 mps 721 mmHg 95%
13:00 +3°C° 0.4 mm 7 mps 720 mmHg 94%
14:00 +3°C° 0.4 mm 7 mps 720 mmHg 93%
15:00 +1°C° 0.4 mm 8 mps 720 mmHg 93%
16:00 +1°C° 0.4 mm 9 mps 721 mmHg 93%
17:00 0°C° 0.4 mm 9 mps 721 mmHg 93%
18:00 0°C° 0.2 mm 7 mps 721 mmHg 93%
19:00 0°C° 0.2 mm 5 mps 722 mmHg 92%
20:00 +1°C° 0.2 mm 3 mps 723 mmHg 92%
21:00 +1°C° 0 mm 3 mps 723 mmHg 92%
22:00 0°C° 0 mm 3 mps 723 mmHg 91%
23:00 0°C° 0 mm 3 mps 724 mmHg 91%

Day after tomorrow, 25 January, Monday

Time Temperature Precipitation Wind Pressure Humidity
00:00 0°C° 0 mm 3 mps 724 mmHg 91%
01:00 +1°C° 0 mm 2 mps 724 mmHg 91%
02:00 +1°C° 0 mm 2 mps 724 mmHg 91%
03:00 +1°C° 0 mm 2 mps 724 mmHg 92%
04:00 +1°C° 0 mm 2 mps 724 mmHg 92%
05:00 +1°C° 0 mm 2 mps 724 mmHg 92%
06:00 -1°C° 0 mm 2 mps 724 mmHg 92%
07:00 -1°C° 0 mm 2 mps 724 mmHg 92%
08:00 -1°C° 0 mm 2 mps 724 mmHg 92%
09:00 +1°C° 0 mm 2 mps 724 mmHg 91%
10:00 +1°C° 0 mm 3 mps 724 mmHg 91%
11:00 +2°C° 0 mm 3 mps 724 mmHg 90%
12:00 +1°C° 0 mm 4 mps 723 mmHg 91%
13:00 +1°C° 0 mm 5 mps 722 mmHg 92%
14:00 +1°C° 0 mm 5 mps 721 mmHg 92%
15:00 +2°C° 0.9 mm 6 mps 720 mmHg 94%
16:00 +2°C° 0.9 mm 6 mps 719 mmHg 95%
17:00 +2°C° 0.9 mm 7 mps 718 mmHg 96%
18:00 +3°C° 0.4 mm 7 mps 717 mmHg 95%
19:00 +3°C° 0.4 mm 7 mps 716 mmHg 94%
20:00 +2°C° 0.4 mm 8 mps 715 mmHg 93%
21:00 +3°C° 0.5 mm 7 mps 714 mmHg 93%
22:00 +3°C° 0.5 mm 6 mps 714 mmHg 93%
23:00 +2°C° 0.5 mm 5 mps 713 mmHg 93%

26 January, Tuesday

Time Temperature Precipitation Wind Pressure Humidity
00:00 +1°C° 0.1 mm 5 mps 713 mmHg 91%
01:00 0°C° 0.1 mm 5 mps 713 mmHg 89%
02:00 -1°C° 0.1 mm 5 mps 712 mmHg 87%
03:00 -1°C° 0.1 mm 5 mps 712 mmHg 90%
04:00 -1°C° 0.1 mm 4 mps 712 mmHg 93%
05:00 -1°C° 0.1 mm 3 mps 712 mmHg 96%
06:00 -1°C° 0.3 mm 3 mps 713 mmHg 97%
07:00 -1°C° 0.3 mm 3 mps 713 mmHg 97%
08:00 -1°C° 0.3 mm 3 mps 713 mmHg 98%
09:00 -3°C° 0.5 mm 6 mps 714 mmHg 95%
10:00 -5°C° 0.5 mm 8 mps 715 mmHg 92%
11:00 -6°C° 0.5 mm 11 mps 715 mmHg 90%
12:00 -6°C° 0.4 mm 11 mps 716 mmHg 90%
13:00 -6°C° 0.4 mm 12 mps 717 mmHg 90%
14:00 -6°C° 0.4 mm 12 mps 718 mmHg 91%
15:00 -6°C° 0.5 mm 12 mps 719 mmHg 91%
16:00 -7°C° 0.5 mm 12 mps 720 mmHg 91%
17:00 -7°C° 0.5 mm 12 mps 721 mmHg 91%
18:00 -7°C° 0.4 mm 12 mps 722 mmHg 91%
19:00 -7°C° 0.4 mm 12 mps 722 mmHg 91%
20:00 -7°C° 0.4 mm 11 mps 723 mmHg 91%
21:00 -7°C° 0.3 mm 11 mps 724 mmHg 91%
22:00 -7°C° 0.3 mm 11 mps 724 mmHg 90%
23:00 -7°C° 0.3 mm 10 mps 725 mmHg 90%

27 January, Wednesday

Time Temperature Precipitation Wind Pressure Humidity
00:00 -7°C° 0.2 mm 10 mps 725 mmHg 91%
01:00 -7°C° 0.2 mm 10 mps 726 mmHg 91%
02:00 -6°C° 0.2 mm 9 mps 726 mmHg 91%
03:00 -6°C° 0.1 mm 9 mps 726 mmHg 91%
04:00 -6°C° 0.1 mm 9 mps 727 mmHg 91%
05:00 -6°C° 0.1 mm 8 mps 727 mmHg 91%
06:00 -6°C° 0.1 mm 8 mps 727 mmHg 91%
07:00 -6°C° 0.1 mm 8 mps 728 mmHg 91%
08:00 -6°C° 0.1 mm 8 mps 728 mmHg 91%
09:00 -6°C° 0 mm 7 mps 729 mmHg 89%
10:00 -6°C° 0 mm 7 mps 729 mmHg 88%
11:00 -6°C° 0 mm 7 mps 729 mmHg 86%
12:00 -6°C° 0 mm 7 mps 730 mmHg 86%
13:00 -5°C° 0 mm 6 mps 730 mmHg 85%
14:00 -5°C° 0 mm 6 mps 730 mmHg 84%
15:00 -5°C° 0 mm 5 mps 730 mmHg 85%
16:00 -5°C° 0 mm 5 mps 730 mmHg 85%
17:00 -5°C° 0 mm 4 mps 731 mmHg 85%
18:00 -5°C° 0 mm 4 mps 731 mmHg 87%
19:00 -5°C° 0 mm 4 mps 731 mmHg 88%
20:00 -5°C° 0 mm 3 mps 731 mmHg 90%
21:00 -5°C° 0 mm 3 mps 731 mmHg 90%
22:00 -5°C° 0 mm 3 mps 731 mmHg 90%
23:00 -5°C° 0 mm 3 mps 732 mmHg 90%

28 January, Thursday

Time Temperature Precipitation Wind Pressure Humidity
00:00 -6°C° 0 mm 3 mps 731 mmHg 91%
01:00 -7°C° 0 mm 3 mps 731 mmHg 92%
02:00 -6°C° 0 mm 2 mps 731 mmHg 93%
03:00 -6°C° 0 mm 2 mps 731 mmHg 93%
04:00 -6°C° 0 mm 2 mps 731 mmHg 93%
05:00 -6°C° 0 mm 2 mps 731 mmHg 93%
06:00 -7°C° 0 mm 2 mps 731 mmHg 93%
07:00 -7°C° 0 mm 2 mps 732 mmHg 92%
08:00 -7°C° 0 mm 2 mps 732 mmHg 92%
09:00 -6°C° 0 mm 2 mps 732 mmHg 90%
10:00 -6°C° 0 mm 2 mps 732 mmHg 88%
11:00 -5°C° 0 mm 2 mps 732 mmHg 86%
12:00 -5°C° 0 mm 2 mps 732 mmHg 86%
13:00 -4°C° 0 mm 2 mps 731 mmHg 87%
14:00 -4°C° 0 mm 2 mps 731 mmHg 87%
15:00 -4°C° 0 mm 2 mps 731 mmHg 89%
16:00 -5°C° 0 mm 2 mps 731 mmHg 92%
17:00 -6°C° 0 mm 2 mps 731 mmHg 94%
18:00 -6°C° 0 mm 2 mps 731 mmHg 95%
19:00 -6°C° 0 mm 2 mps 731 mmHg 95%
20:00 -7°C° 0 mm 2 mps 731 mmHg 96%
Show more

We Need Your Consent

Meteoprog and our Service Providers may store and access personal data such as cookies, device identifiers or other similar technologies on your device and process such data to personalise content and ads, as well as provide social media features and to analyse the traffic.

  • Store and/or access information on your device

    Cookies, device identifiers or other information can be stored or accessed on your device for the purposes indicated above.

  • Personalised ads and content, ad and content measurement, audience insights, and products development

    Ads and content can be personalised based on a profile. More data can be added to better personalise ads and content. Ad and content performance can be measured. Insights about the audience who saw the ads and content can be derived. Such data can be used to develop or improve user’s experience, systems and software.

By clicking ‘I Agree’ you will allow the use of indicated cookies, device identifiers, web beacons or other similar technologies. Your settings can be changed in the browser on your device.

For certain purposes, legitimate interests may be relied on, rather than consent. You can read more about this in our Privacy and Cookie Policy.